Location: Cortos
(40.7190°N, 4.5893°W)
Time: 19:16:33
(UTC+00:00)

SL-16 R/B - Pass Details

Date: 05 July 2020
Orbit: 842 x 846 km, 71.0° (Epoch: 05 August)

Event Time Altitude Azimuth Distance (km) Brightness Sun altitude
Rises 20:47:18 0° 218° (SW) 3,388 5.3 -9.2°
Reaches altitude 10° 20:49:49 10° 224° (SW) 2,457 4.7 -9.6°
Maximum altitude 20:55:15 48° 299° (WNW) 1,096 3.3 -10.3°
Drops below altitude 10° 21:00:44 10° 13° (NNE) 2,474 5.1 -11.1°
Sets 21:03:17 0° 19° (NNE) 3,413 5.7 -11.4°
